[[{"header":{"parameterUnit":"m.s-1","parameterCategory":1,"la1":30.2991,"la2":30.254,"lo1":-89.0895,"lo2":-89.0444,"dy":0.0017,"dx":0.0017,"nx":28,"ny":28,"refTime":"2025-08-29T03:00:00:Z","depth":0,"parameterNumber":2,"parameterNumberName":"U-component_of_WINDS"},"data":[0,0,0,0,0,0,0,0,0,0,0,0,0,0,0,0,0,0,0,0,0,0,0,0,0,0,0,0,0,0,0,0,0,0,0,0,0,0,0,0,0,0,0,0,0,0,0,0,0,0,0,0,0,0,0,0,0,0,-0.4869,-0.4869,0,-0.4931,-0.4932,-0.4932,-0.5018,-0.5019,-0.5021,-0.5022,-0.5081,-0.5081,-0.5081,0,0,0,0,0,0,0,0,0,0,0,0,0,-0.4819,-0.482,-0.4869,-0.4869,-0.487,-0.4931,-0.4932,-0.4933,-0.5018,-0.5019,-0.5021,-0.5023,-0.5081,-0.5081,-0.5081,0,0,0,0,0,0,0,0,0,0,0,0,0,-0.4857,-0.482,-0.4868,-0.492,-0.4925,-0.4931,-0.4932,-0.4933,-0.5017,-0.5019,-0.5022,-0.5024,-0.508,-0.5081,-0.5081,-0.5039,0,0,-0.5082,-0.5082,0,0,0,0,0,0,0,0,-0.4855,-0.4859,-0.4912,-0.4917,-0.4922,-0.4969,-0.4936,-0.4968,-0.5017,-0.4982,-0.5022,-0.5025,-0.5041,-0.5045,-0.5052,-0.5042,-0.5045,-0.5082,-0.5082,-0.5082,-0.5082,0,0,0,0,0,0,0,-0.4852,-0.4856,-0.4893,-0.4912,-0.4919,-0.4939,-0.4947,-0.4942,-0.4998,-0.4985,-0.4992,-0.4998,-0.5045,-0.5051,-0.5054,-0.5045,-0.5082,-0.5082,-0.5082,-0.5083,-0.5006,-0.5004,0,0,0,0,0,0,-0.4842,-0.4854,-0.4891,-0.4895,-0.4893,-0.4938,-0.4947,-0.4952,-0.4999,-0.5008,-0.4996,-0.5002,-0.505,-0.5053,-0.5056,-0.5012,-0.5082,-0.5083,-0.5083,-0.5008,-0.5006,-0.5003,0,0,0,0,0,0,-0.4841,-0.4845,-0.4889,-0.4876,-0.4883,-0.4937,-0.4942,-0.4952,-0.4959,-0.5007,-0.5017,-0.4993,-0.5052,-0.5056,-0.5044,-0.5015,-0.5083,-0.5083,-0.5011,-0.5008,-0.5005,-0.4921,0,0,0,0,0,0,-0.4839,-0.4844,-0.4829,-0.4875,-0.4884,-0.4876,-0.494,-0.4951,-0.496,-0.4968,-0.5007,-0.5015,-0.5054,-0.5043,-0.5044,-0.5016,-0.5083,-0.5014,-0.5009,-0.5006,-0.4927,-0.4915,-0.4906,0,0,0,0,0,-0.4837,-0.4802,-0.4828,-0.4832,-0.4867,-0.4874,-0.4879,-0.4925,-0.4957,-0.4942,-0.4974,-0.5014,-0.5018,-0.5041,-0.5043,-0.5015,-0.5016,-0.5011,-0.5006,-0.4931,-0.4918,-0.4906,0,0,0,0,0,0,-0.4748,-0.4809,-0.4838,-0.4817,-0.484,-0.4889,-0.4871,-0.4909,-0.4922,-0.4928,-0.4984,-0.4992,-0.4973,-0.4993,-0.5017,-0.4978,-0.5023,-0.5018,-0.4966,-0.4953,-0.4943,-0.4938,-0.5083,0,0,0,0,0,-0.4727,-0.4729,-0.4781,-0.4757,-0.4767,-0.4817,-0.4822,-0.4856,-0.4881,-0.4891,-0.4922,-0.4943,-0.495,-0.4952,-0.4961,-0.493,-0.494,-0.4912,-0.4902,-0.4893,-0.4888,-0.4874,-0.4863,-0.4987,-0.4987,-0.4987,0,0,-0.4681,-0.4714,-0.4712,-0.474,-0.4762,-0.4763,-0.4825,-0.4822,-0.4823,-0.489,-0.4882,-0.4904,-0.4932,-0.4911,-0.4903,-0.4927,-0.4856,-0.4886,-0.4879,-0.4879,-0.4868,-0.4856,-0.4846,-0.4984,-0.4984,-0.4985,0,0,-0.4599,-0.4624,-0.4608,-0.4629,-0.4663,-0.4696,-0.4692,-0.4736,-0.4754,-0.4747,-0.4798,-0.4799,-0.4808,-0.4827,-0.4837,-0.4764,-0.4801,-0.4765,-0.471,-0.4696,-0.4686,-0.4678,-0.4652,-0.4642,-0.476,-0.4759,-0.4759,0,-0.4537,-0.4542,-0.4594,-0.459,-0.46,-0.4664,-0.4648,-0.4665,-0.4698,-0.4704,-0.4731,-0.4745,-0.4768,-0.4753,-0.4736,-0.4742,-0.4739,-0.476,-0.4684,-0.4676,-0.4669,-0.4645,-0.4635,-0.4755,-0.4755,-0.4756,-0.4756,0,-0.4465,-0.4467,-0.445,-0.4484,-0.4493,-0.4482,-0.4532,-0.4534,-0.4568,-0.4598,-0.459,-0.4621,-0.4637,-0.4636,-0.4667,-0.4625,-0.4639,-0.4674,-0.472,-0.4651,-0.463,-0.4621,-0.4748,-0.475,-0.4751,-0.4752,0,0,-0.4328,-0.4392,-0.4385,-0.4402,-0.4444,-0.4446,-0.4438,-0.4456,-0.4458,-0.4478,-0.4473,-0.4481,-0.4514,-0.4526,-0.456,-0.4548,-0.4489,-0.4584,-0.4586,-0.4566,-0.4445,-0.4419,-0.4408,-0.4514,-0.4513,-0.4512,-0.4443,0,-0.4254,-0.4246,-0.4294,-0.4273,-0.4276,-0.4337,-0.433,-0.4355,-0.4383,-0.4389,-0.442,-0.4425,-0.4468,-0.4475,-0.4466,-0.4498,-0.4465,-0.4503,-0.4509,-0.4509,-0.4501,-0.4397,-0.4369,-0.4303,-0.4435,-0.4434,-0.4433,0,-0.4167,-0.4186,-0.4165,-0.4211,-0.4214,-0.4207,-0.4228,-0.4233,-0.4262,-0.4284,-0.4298,-0.4339,-0.4333,-0.4378,-0.4371,-0.4396,-0.4401,-0.4417,-0.4416,-0.4418,-0.4466,-0.4396,-0.4283,-0.4273,-0.442,-0.4421,-0.4422,0,-0.4069,-0.409,-0.4081,-0.4093,-0.4145,-0.4139,-0.416,-0.4192,-0.42,-0.4218,-0.4224,-0.424,-0.4249,-0.426,-0.4304,-0.4332,-0.4292,-0.434,-0.431,-0.4308,-0.4298,-0.4298,-0.4184,-0.4301,-0.4301,-0.4301,-0.4301,0,-0.3982,-0.3968,-0.4039,-0.4033,-0.4018,-0.4073,-0.4057,-0.4084,-0.4112,-0.4112,-0.4164,-0.4163,-0.4221,-0.4225,-0.4259,-0.4249,-0.4252,-0.4269,-0.4278,-0.4264,-0.4262,-0.4269,-0.4274,-0.4298,-0.4299,-0.4299,-0.43,0,-0.3871,-0.3918,-0.3913,-0.3963,-0.3976,-0.3963,-0.4006,-0.4002,-0.4035,-0.4034,-0.4037,-0.4088,-0.4096,-0.4141,-0.4159,-0.4182,-0.416,-0.4178,-0.4151,-0.4157,-0.4124,-0.4127,-0.401,-0.3998,-0.4121,-0.412,-0.4119,0,-0.3813,-0.3804,-0.3854,-0.3859,-0.3879,-0.3885,-0.3895,-0.3949,-0.3956,-0.399,-0.3982,-0.3995,-0.4009,-0.4019,-0.4057,-0.4071,-0.409,-0.4049,-0.4093,-0.408,-0.409,-0.4091,-0.409,-0.4039,-0.4037,-0.4036,-0.4035,0,-0.3704,-0.3729,-0.3742,-0.3763,-0.3774,-0.3793,-0.3814,-0.3815,-0.3874,-0.388,-0.3891,-0.3901,-0.3921,-0.3934,-0.3955,-0.3975,-0.4014,-0.4021,-0.4015,-0.4001,-0.3986,-0.3994,-0.4125,-0.4023,-0.4024,-0.4025,-0.4026,-0.4026,-0.3619,-0.3614,-0.365,-0.3662,-0.3685,-0.3705,-0.3704,-0.3738,-0.3749,-0.3771,-0.3801,-0.3808,-0.3838,-0.3871,-0.3888,-0.3893,-0.3916,-0.3906,-0.3904,-0.3901,-0.3895,-0.3985,-0.3897,-0.3898,-0.3898,-0.3898,-0.3898,0,-0.3514,-0.3541,-0.3552,-0.3582,-0.3592,-0.3631,-0.3657,-0.3663,-0.3669,-0.3694,-0.3707,-0.372,-0.3733,-0.3772,-0.3788,-0.3785,-0.3803,-0.3787,-0.3788,-0.3792,-0.3873,-0.3877,-0.3772,-0.3772,-0.3772,-0.3772,-0.3772,-0.3772,-0.3461,-0.3455,-0.3484,-0.349,-0.3516,-0.3525,-0.3537,-0.3555,-0.3576,-0.3588,-0.36,-0.3626,-0.3657,-0.3677,-0.369,-0.3701,-0.3705,-0.3683,-0.37,-0.3774,-0.3787,-0.3798,-0.3802,-0.3683,-0.3683,-0.3619,-0.3618,-0.3618]},{"header":{"parameterUnit":"m.s-1","parameterCategory":1,"la1":30.2991,"la2":30.254,"lo1":-89.0895,"lo2":-89.0444,"dy":0.0017,"dx":0.0017,"nx":28,"ny":28,"refTime":"2025-08-29T03:00:00:Z","depth":0,"parameterNumber":3,"parameterNumberName":"V-component_of_WINDS"},"data":[0,0,0,0,0,0,0,0,0,0,0,0,0,0,0,0,0,0,0,0,0,0,0,0,0,0,0,0,0,0,0,0,0,0,0,0,0,0,0,0,0,0,0,0,0,0,0,0,0,0,0,0,0,0,0,0,0,0,2.0381,2.0377,0,2.008,2.0077,2.0073,1.9774,1.977,1.9766,1.9763,1.945,1.9445,1.944,0,0,0,0,0,0,0,0,0,0,0,0,0,2.0692,2.0688,2.0381,2.0377,2.0373,2.0081,2.0076,2.0072,1.9775,1.977,1.9765,1.9761,1.9451,1.9446,1.944,0,0,0,0,0,0,0,0,0,0,0,0,0,2.0491,2.0687,2.0382,2.019,2.017,2.0081,2.0076,2.0071,1.9776,1.977,1.9764,1.9759,1.9453,1.9446,1.9439,1.9514,0,0,1.9418,1.9415,0,0,0,0,0,0,0,0,2.0503,2.048,2.0222,2.0203,2.018,1.9959,2.0071,1.9884,1.9777,1.9925,1.9763,1.9756,1.9623,1.9602,1.9558,1.95,1.9486,1.9417,1.9413,1.941,1.9408,0,0,0,0,0,0,0,2.0517,2.0491,2.0261,2.0218,2.0193,2.0117,2.0082,2.0034,1.9811,1.9912,1.989,1.9858,1.9611,1.9566,1.9549,1.9481,1.9417,1.9411,1.9407,1.9404,1.9468,1.9473,0,0,0,0,0,0,2.0561,2.0505,2.0271,2.0252,2.033,2.0116,2.0077,2.0036,1.9811,1.9771,1.9864,1.9846,1.9581,1.9557,1.9537,1.9608,1.941,1.9403,1.9399,1.9462,1.9469,1.9475,0,0,0,0,0,0,2.0569,2.0543,2.0283,2.0372,2.0334,2.0117,2.0073,2.0033,1.9987,1.9774,1.9732,1.9859,1.9575,1.9547,1.9522,1.9593,1.94,1.9394,1.9455,1.9464,1.9472,1.9754,0,0,0,0,0,0,2.0579,2.0548,2.0575,2.0375,2.033,2.0276,2.0078,2.0031,1.9977,1.995,1.9759,1.9721,1.9568,1.9534,1.9515,1.958,1.9388,1.9447,1.9459,1.9469,1.9737,1.9771,1.9801,0,0,0,0,0,2.0591,2.0666,2.0578,2.0552,2.036,2.0281,2.0254,2.0078,1.9984,2.0009,1.9872,1.9728,1.959,1.9534,1.951,1.9574,1.9442,1.9456,1.9468,1.9723,1.9765,1.98,0,0,0,0,0,0,2.0877,2.0636,2.0536,2.0548,2.0438,2.0231,2.0256,2.0128,2.004,2.0019,1.9802,1.9762,1.9762,1.9665,1.9608,1.9634,1.9495,1.9505,1.9697,1.9735,1.9766,1.9788,1.9383,0,0,0,0,0,2.0942,2.09,2.069,2.0721,2.0671,2.0475,2.0433,2.0307,2.0183,2.0134,1.9995,1.9879,1.9808,1.9766,1.969,1.9723,1.9676,1.9755,1.9787,1.9814,1.9823,1.9832,1.9865,1.9519,1.9519,1.9518,0,0,2.1074,2.0937,2.0923,2.0775,2.0674,2.0633,2.0437,2.0402,2.0368,2.0128,2.0096,1.9991,1.9846,1.9851,1.9846,1.977,1.9909,1.9831,1.9854,1.9848,1.9849,1.9882,1.9912,1.9528,1.9526,1.9525,0,0,2.1294,2.1188,2.1201,2.1105,2.0956,2.0825,2.083,2.0642,2.0563,2.0529,2.0347,2.0304,2.0189,2.0093,2.0029,2.0216,2.0079,2.0197,2.0361,2.0373,2.04,2.0423,2.0488,2.0514,2.0208,2.0209,2.0209,0,2.1477,2.141,2.1224,2.12,2.114,2.0923,2.0934,2.0849,2.0683,2.0645,2.0564,2.0414,2.0302,2.028,2.0327,2.0283,2.0279,2.0217,2.0412,2.0433,2.0451,2.0511,2.0536,2.0224,2.0222,2.022,2.0219,0,2.1641,2.1598,2.1627,2.1474,2.1416,2.1411,2.1222,2.1187,2.1067,2.0944,2.0912,2.077,2.0661,2.0647,2.0528,2.0609,2.0566,2.0452,2.0307,2.0503,2.0555,2.0576,2.0245,2.024,2.0235,2.0232,0,0,2.203,2.1777,2.179,2.1718,2.1539,2.15,2.1485,2.138,2.1353,2.1246,2.1226,2.1134,2.1027,2.0955,2.0824,2.0835,2.0991,2.0718,2.0711,2.0772,2.1069,2.1156,2.1185,2.09,2.0904,2.0907,2.1081,0,2.2218,2.2178,2.2011,2.202,2.1977,2.1771,2.1757,2.1645,2.1531,2.1476,2.1348,2.1287,2.1151,2.1106,2.1108,2.0972,2.1047,2.0957,2.0877,2.0877,2.0919,2.1212,2.1303,2.1474,2.11,2.1103,2.1106,0,2.2431,2.2341,2.2347,2.2169,2.2144,2.2135,2.2026,2.1977,2.1845,2.1761,2.1684,2.1538,2.1508,2.1376,2.133,2.1273,2.1231,2.116,2.1162,2.1146,2.1002,2.1203,2.1524,2.155,2.1136,2.1134,2.1132,0,2.2713,2.2592,2.2579,2.2524,2.2317,2.2316,2.2229,2.2092,2.204,2.1944,2.1908,2.181,2.1756,2.1683,2.1515,2.1434,2.1489,2.1342,2.1416,2.1421,2.1434,2.1436,2.1753,2.1412,2.1412,2.1411,2.1411,0,2.2938,2.295,2.2703,2.2696,2.2702,2.2509,2.252,2.2413,2.2294,2.226,2.2077,2.2049,2.1829,2.1776,2.1644,2.1626,2.1603,2.1533,2.1498,2.1548,2.1558,2.1516,2.1499,2.1418,2.1416,2.1415,2.1414,0,2.3252,2.3088,2.3061,2.2868,2.282,2.2833,2.2667,2.2651,2.2527,2.2487,2.2467,2.2271,2.2199,2.2025,2.1906,2.1817,2.1834,2.1769,2.1879,2.1856,2.1939,2.1934,2.2239,2.2268,2.1913,2.1917,2.192,0,2.3406,2.341,2.3219,2.3185,2.3107,2.3054,2.3,2.2812,2.2764,2.2615,2.2617,2.2531,2.2452,2.2347,2.2193,2.2101,2.2032,2.2146,2.2017,2.2068,2.2031,2.2033,2.2032,2.2173,2.2178,2.2182,2.2185,0,2.3696,2.3615,2.3547,2.3451,2.3394,2.3308,2.3212,2.3194,2.2981,2.2937,2.2862,2.2802,2.2682,2.2598,2.2483,2.2391,2.2253,2.2228,2.224,2.2291,2.2353,2.2319,2.1954,2.2221,2.2217,2.2215,2.2213,2.2211,2.3932,2.3926,2.3792,2.3722,2.3631,2.3546,2.3522,2.3396,2.3331,2.322,2.3113,2.305,2.2917,2.2749,2.2667,2.2614,2.2542,2.256,2.2564,2.2571,2.2594,2.2365,2.2592,2.2591,2.259,2.2589,2.2588,0,2.4211,2.4115,2.4053,2.3926,2.3872,2.375,2.3638,2.3599,2.3546,2.3436,2.3363,2.3278,2.3196,2.3038,2.2942,2.293,2.2864,2.2911,2.2908,2.2889,2.2663,2.2662,2.2966,2.2966,2.2966,2.2965,2.2965,2.2965,2.4349,2.4333,2.4237,2.4173,2.4076,2.4014,2.3961,2.3881,2.3792,2.3706,2.3639,2.3537,2.3406,2.33,2.322,2.3175,2.3147,2.3215,2.315,2.2941,2.2905,2.2871,2.2868,2.3211,2.3211,2.3379,2.3381,2.3383]}]]